Regional Weather Roundup
Issued by NWS Northern Indiana

Home | Current Version | Previous Version | Graphics & Text | Print | Product List | Glossary On
Versions: 1 2 3 4 5 6 7 8 9 10 11 12 13 14 15 16 17 18 19 20 21 22 23 24 25 26 27 28 29 30 31 32 33 34 35 36 37 38 39 40 41 42 43 44 45 46 47 48 49 50
317
ASUS43 KIWX 221000
RWRIWX

KIWX WEATHER ROUNDUP
NATIONAL WEATHER SERVICE NORTHERN INDIANA
600 AM EDT SUN OCT 22 2017

NOTE: "FAIR" INDICATES FEW OR NO CLOUDS BELOW 12,000 FEET WITH NO
SIGNIFICANT WEATHER AND/OR OBSTRUCTIONS TO VISIBILITY.

* THESE STATIONS ARE NOT UNDER NWS QUALITY CONTROL. THEY ALSO MAY NOT
  REPORT WEATHER SUCH AS PRECIPITATION OR FOG.

INZ001>027-221100-
NORTHERN INDIANA

CITY           SKY/WX    TMP DP  RH WIND       PRES   REMARKS
GARY*          MOCLDY    66  57  72 S14G26    29.98S
SOUTH BEND     CLEAR     60  50  69 SE9       30.04F
GOSHEN         PTCLDY    58  46  64 SE8       30.07F
MONTICELLO*    CLOUDY    61  49  64 SE6       30.02S
FORT WAYNE     PTCLDY    56  47  71 SE3       30.11F
PERU/GRISSOM   CLOUDY    59  49  68 S10       30.06F

$$
INZ028>050-221100-
CENTRAL INDIANA

CITY           SKY/WX    TMP DP  RH WIND       PRES   REMARKS
LAFAYETTE      PTCLDY    61  51  70 S8        30.02F
KOKOMO*        CLEAR     59  49  69 S10       30.08F
MUNCIE*        CLOUDY    62  48  60 S9        30.11F
INDIANAPOLIS   CLOUDY    57  49  74 SE10      30.09F

$$
MIZ043>046-050>051-056>058-064>065-071>073-077>080-221100-
SOUTHWEST LOWER MICHIGAN

CITY           SKY/WX    TMP DP  RH WIND       PRES   REMARKS
BATTLE CREEK   CLEAR     60  47  61 S12       30.07F
BENTON HARBOR  MOCLDY    62  49  62 SE10      30.00F
COLDWATER*     CLEAR     60  45  58 SE8       30.09F
HILLSDALE*     PTCLDY    55  45  67 SE8       30.12S
HOLLAND        CLEAR     63  51  65 S10       30.02F
GRAND RAPIDS   PTCLDY    59  51  75 SE7       30.04F
KALAMAZOO      CLEAR     61  45  55 S6        30.07S
STURGIS*       CLOUDY    60  47  63 S13       30.07S
THREE RIVERS*  FAIR      60  48  64 S7        30.07F

$$
OHZ001>008-015>018-024>025-221100-
NORTHWEST OHIO

CITY           SKY/WX    TMP DP  RH WIND       PRES   REMARKS
DEFIANCE       CLOUDY    56  46  69 S6        30.14S
FINDLAY        CLOUDY    53  47  79 SE12      30.17S
TOLEDO EXPRESS CLOUDY    52  49  89 CALM      30.15F
TOLEDO METCALF CLOUDY    54  48  80 SE6       30.17S
LIMA           CLOUDY    53  47  79 S8        30.16F

$$
AND FOR LAKE MICHIGAN COASTAL AND OPEN LAKE BUOY OBSERVATIONS

STATION/POSITION TEMP    WIND        PRES    VSBY  WAVE
                 AIR SEA DIR/SP/G                  HT/PER
                 (F)     (DEG/KT/KT) (MB)    (MI)  (FT/S)
CALUMET HARBOR    65     170/  9/ 13 1014.2S
MICHIGAN CITY     65     160/ 12/ 15   N/A
BURNS HARBOR      67     180/ 14/ 24 1015.2F
SAINT JOSEPH      66     190/  2/  9 1016.6
SOUTH LAKE BUOY   63 60  150/ 17/ 21 1014.9          4/ 5
4 MI NW BRIDGMAN  65 59  180/ 16/ 19 1015.9F         2/ 4
MICHIGAN CITY     63 58  180/ 16/ 19   N/A           2/ 3

$$
&&




USA.gov is the U.S. government's official web portal to all federal, state and local government web resources and services.